Weather History for KHOU - May, 2013

Change the Weather History Date:

Saturday, May 18, 2013

  Actual Average Record
Temperature  
Mean Temperature 83 °F 78 °F  
Max Temperature 91 °F 87 °F 95 °F (1890)
Min Temperature 75 °F 68 °F 50 °F (1976)
Cooling Degree Days 18 13  
Month to date cooling degree days 123 189  
Year to date cooling degree days 348 470  
Growing Degree Days 30 (Base 50)    
Moisture  
Dew Point 70 °F    
Average Humidity 67    
Maximum Humidity 87    
Minimum Humidity 47    
Precipitation  
Precipitation 0.00 in 0.15 in 6.16 in (1989)
Month to date precipitation 0.94 2.96  
Year to date precipitation 9.24 16.26  
Sea Level Pressure  
Sea Level Pressure 29.94 in    
Wind  
Wind Speed 10 mph (SSE)    
Max Wind Speed 22 mph    
Max Gust Speed 30 mph    
Visibility 8 miles    
Events      
T = Trace of Precipitation, MM = Missing Value Source: NWS Daily Summary

Daily Weather History Graph

Daily Weather History Graph

Search for Another Location

Airport or City:

Trip Planner

Search our weather history database for the weather conditions in past years. The results will help you decide how hot, cold, wet, or windy it might be!

Date:

Astronomy

May. 18, 2013 Rise Set
Actual Time 6:26 AM CDT 8:08 PM CDT
Civil Twilight 6:00 AM CDT 8:35 PM CDT
Nautical Twilight 5:28 AM CDT 9:06 PM CDT
Astronomical Twilight 4:55 AM CDT 9:40 PM CDT
Moon 1:42 PM CDT (5/18) 1:47 AM CDT (5/18)
Length of Visible Light 14h 34m
Length of Day
13h 42m
First Quarter, 55% of the Moon is Illuminated
May 18
First Quarter
May 24
Full
May 31
Last Quarter
Jun 8
New
Jun 16
First Quarter

Hourly Weather History & Observations

Time (CDT) Temp. Heat Index Dew Point Humidity Pressure Visibility Wind Dir Wind Speed Gust Speed Precip Events Conditions
12:53 AM 75.0 °F - 71.1 °F 87% 29.94 in 8.0 mi SSE 11.5 mph 19.6 mph N/A   Overcast
1:53 AM 75.9 °F - 71.1 °F 85% 29.94 in 8.0 mi South 5.8 mph 18.4 mph N/A   Overcast
2:53 AM 75.9 °F - 71.1 °F 85% 29.94 in 8.0 mi SSE 8.1 mph - N/A   Overcast
3:44 AM 75.2 °F - 71.6 °F 89% 29.91 in 8.0 mi South 10.4 mph 17.3 mph N/A   Overcast
3:53 AM 75.9 °F - 71.1 °F 85% 29.93 in 8.0 mi South 8.1 mph - N/A   Overcast
4:53 AM 75.0 °F - 71.1 °F 87% 29.94 in 7.0 mi South 8.1 mph - N/A   Overcast
5:09 AM 75.2 °F - 71.6 °F 89% 29.92 in 6.0 mi South 6.9 mph - N/A   Overcast
5:53 AM 75.0 °F - 71.1 °F 87% 29.94 in 6.0 mi South 5.8 mph - N/A   Overcast
6:24 AM 75.2 °F - 71.6 °F 89% 29.93 in 6.0 mi South 8.1 mph - N/A   Overcast
6:53 AM 73.9 °F - 71.1 °F 91% 29.96 in 4.0 mi South 5.8 mph - N/A   Overcast
7:53 AM 75.0 °F - 71.1 °F 87% 29.97 in 5.0 mi South 4.6 mph - N/A   Mostly Cloudy
8:53 AM 78.1 °F - 71.1 °F 79% 29.98 in 6.0 mi SSE 9.2 mph 17.3 mph N/A   Haze
9:06 AM 78.8 °F - 69.8 °F 74% 29.96 in 6.0 mi South 12.7 mph - N/A   Haze
9:53 AM 80.1 °F 83.6 °F 71.1 °F 74% 29.98 in 8.0 mi SE 10.4 mph - N/A   Scattered Clouds
10:53 AM 82.9 °F 87.0 °F 70.0 °F 65% 29.98 in 10.0 mi South 6.9 mph 17.3 mph N/A   Scattered Clouds
11:53 AM 86.0 °F 90.1 °F 69.1 °F 57% 29.98 in 10.0 mi South 10.4 mph 20.7 mph N/A   Scattered Clouds
12:53 PM 87.1 °F 92.0 °F 70.0 °F 57% 29.97 in 10.0 mi South 15.0 mph 20.7 mph N/A   Scattered Clouds
1:53 PM 87.8 °F 92.6 °F 69.8 °F 55% 29.93 in 10.0 mi South 12.7 mph 20.7 mph N/A   Mostly Cloudy
2:53 PM 88.0 °F 91.4 °F 68.0 °F 51% 29.94 in 10.0 mi SSE 15.0 mph - N/A   Mostly Cloudy
3:53 PM 87.1 °F 91.3 °F 69.1 °F 55% 29.93 in 10.0 mi SSE 16.1 mph 21.9 mph N/A   Mostly Cloudy
4:53 PM 86.0 °F 90.7 °F 70.0 °F 59% 29.92 in 10.0 mi SSE 16.1 mph 19.6 mph N/A   Mostly Cloudy
5:53 PM 84.9 °F 88.2 °F 68.0 °F 57% 29.93 in 10.0 mi SSE 11.5 mph - N/A   Mostly Cloudy
6:53 PM 82.0 °F 84.5 °F 66.9 °F 60% 29.93 in 10.0 mi SSE 11.5 mph - N/A   Mostly Cloudy
7:53 PM 78.1 °F - 69.1 °F 74% 29.94 in 10.0 mi SSE 10.4 mph - N/A   Mostly Cloudy
8:48 PM 77.0 °F - 71.6 °F 83% 29.93 in 10.0 mi SSE 8.1 mph - N/A   Mostly Cloudy
8:53 PM 77.0 °F - 71.1 °F 82% 29.94 in 8.0 mi SSE 9.2 mph - N/A   Mostly Cloudy
9:41 PM 75.2 °F - 71.6 °F 89% 29.90 in 10.0 mi SSE 12.7 mph 19.6 mph N/A   Mostly Cloudy
9:53 PM 75.9 °F - 71.1 °F 85% 29.94 in 8.0 mi South 12.7 mph 21.9 mph N/A   Mostly Cloudy
10:53 PM 75.9 °F - 70.0 °F 82% 29.92 in 8.0 mi SSE 13.8 mph 19.6 mph N/A   Mostly Cloudy
11:53 PM 75.2 °F - 69.8 °F 83% 29.91 in 10.0 mi SSE 13.8 mph 25.3 mph N/A   Overcast